User: anonymous   Login
Location: Azul
(36.7830°S, 59.8500°W)
Time: 20:55:25
(UTC-03:00)
Language:

PCSat - Orbit

View from above orbital plane
View from above orbital plane
View from above satellite
View from above satellite

Ground track
Ground track

The orbit data is extracted from the following two-line orbital elements,

1 26931U 01043C   21296.18328867  .00000001  00000-0  32161-4 0  9990
2 26931  67.0507 310.7900 0005649 273.8181  86.2274 14.30638333 47466
Epoch (UTC): 23 October 2021 04:23:56
Eccentricity: 0.0005649
inclination: 67.0507°
perigee height: 785 km
apogee height: 793 km
right ascension of ascending node: 310.7900°
argument of perigee: 273.8181°
revolutions per day: 14.30638333
mean anomaly at epoch: 86.2274°
orbit number at epoch: 4746

The dashed part of the orbit path shows where the satellite is in the earth's shadow,  

DLR